Home > Weather > Moroni > Past weeks

Flag for Comoros Past Weather in Moroni, Comoros — Yesterday and Last 2 Weeks

Now
84 °F

Passing clouds.


Feels Like: 90 °F
Forecast: 70 / 83 °F
Wind: 12 mph from Southwest

Location: Hahaya International Airport

Current Time: Jul 24, 2016 at 3:52:31 PM

Latest Report: Jul 24, 2016 at 3:00 PM


Visibility: N/A

Pressure: 30.01 "Hg

Humidity: 66%

Dew Point: 72 °F

Location of MoroniLocation

Past Weather in Moroni — Graph

°F

Moroni Temperature Yesterday

Maximum temperature yesterday: 82 °F (at 1:00 PM)
Minimum temperature yesterday: 68 °F (at 4:00 AM)
Average temperature yesterday: 77 °F

High & Low Weather Summary for the Past Weeks

 TemperatureHumidityPressure
High86 °F (Jul 21, 11:00 AM)94% (Jul 14, 7:00 AM)30.24 "Hg (Jul 14, 7:00 AM)
Low61 °F (Jul 11, 5:00 AM)37% (Jul 10, 9:00 AM)29.98 "Hg (Jul 19, 4:00 PM)
Average78 °F68%30.05 "Hg
* Reported Jul 9 3:00 PM — Jul 24 3:00 PM, Moroni, Weather by CustomWeather, © 2016

Note: Actual official high and low records may vary slightly from our data, if they occured in-between our weather recording intervals... More about our weather records

Advertising

Moroni Weather History for the Previous 24 Hours

Scroll right to see more
 ConditionsComfort  
Time TempWeatherWind HumidityBarometerVisibility
3:00 PM
Sun, Jul 24
84 °FPassing clouds.12 mph66%30.01 "HgN/A
2:00 PM82 °FPassing clouds.10 mph70%30.01 "HgN/A
1:00 PM82 °FPassing clouds.10 mph70%30.01 "HgN/A
12:00 PM81 °FPassing clouds.7 mph70%30.04 "HgN/A
11:00 AM79 °FScattered clouds.7 mph74%30.04 "HgN/A
10:00 AM79 °FScattered clouds.6 mph79%30.04 "HgN/A
9:00 AM79 °FPassing clouds.6 mph74%30.04 "HgN/A
8:00 AM77 °FPassing clouds.7 mph79%30.01 "HgN/A
7:00 AM70 °FPassing clouds.5 mph94%29.98 "HgN/A
6:00 AM72 °FPassing clouds.3 mph83%29.98 "HgN/A
9:00 PM
Sat, Jul 23
75 °FPassing clouds.No wind83%30.04 "HgN/A
8:00 PM77 °FPassing clouds.2 mph83%30.01 "HgN/A
7:00 PM79 °FPassing clouds.5 mph79%30.01 "HgN/A
6:00 PM79 °FPassing clouds.5 mph79%30.01 "HgN/A
5:00 PM77 °FPartly sunny.6 mph89%29.98 "HgN/A
4:00 PM79 °FPartly sunny.7 mph79%29.98 "HgN/A
3:00 PM81 °FPassing clouds.7 mph74%30.01 "HgN/A
Weather by CustomWeather, © 2016

See weather overviewHow to use our weather pages